Location: Bronnegerveen
(52.9548°N, 6.8388°E)
Time: 02:11:41
(UTC+00:00)

CZ-2C R/B - Pass Details

Date: 15 June 2025
Orbit: 783 x 866 km, 98.4° (Epoch: 07 July)

Event Time Altitude Azimuth Distance (km) Brightness Sun altitude
Exits shadow 01:56:00 - 226° (SW) 2,473 4.5 -7.7°
Reaches altitude 10° 01:56:24 10° 229° (SW) 2,366 4.4 -7.6°
Maximum altitude 02:00:00 19° 273° (W) 1,856 4.2 -7.3°
Drops below altitude 10° 02:03:41 10° 317° (NW) 2,412 5.3 -7.0°
Sets 02:06:48 0° 335° (NNW) 3,366 6.3 -6.8°
